Погода в Медногорском

Россия / Карачаево-Черкесская Республика     43°55′04″N   41°10′50″E
темп.,
°C
ветер,
м/с
пор.,
м/с
влажн.,
%
обл.,
%
осадки,
мм/ч
давл.,
гПа
погр.,
м
28 февраля, вс
вс2800:00−1ююз227833 0.0 101722
03:000юз117867 0.0 101721
06:00−1св118285 0.0 101623
09:000св119392 0.0 1016118
12:000ссв2294100 0.4 1016189
15:00−1с2295100 4.3 1016223
18:00−1зсз1298100 3.2 1017152
21:00−2ссз1297100 5.4 1019190
1 марта, пн
пн100:00−3сз0097100 1.0 102069
03:00−4ссз1198100 2.1 102241
06:00−5зсз119795 0.3 102428
09:00−2с118995 0.4 1025280
12:00−1ссв228492 0.1 1026522
15:00−2ссв238996 0.3 1025359
18:00−3вюв1295100 0.5 1027154
21:00−4вюв1195100 0.6 102851
2 марта, вт
вт200:00−4ю119481 0.0 102926
03:00−5юз128946 0.0 102921
06:00−6ююз127823 0.0 103021
09:00−2ююз116719 0.0 1029207
12:00+1ссз12640 0.0 1028653
15:00+1ссз227817 0.0 1026644
18:00−2з1197100 0.3 102630
21:00−3ююз229494 0.4 102639
3 марта, ср
ср300:00−4юз227350 0.0 102645
03:00−4юз237258 0.0 102454
06:00−4юз237122 0.0 102354
09:00−1зюз255845 0.0 1022431
12:00+3з3751100 0.0 10211479
15:00+4зсз2556100 0.1 10211067
18:00−2ссз349798 0.3 1023301
21:00−2зсз119798 2.0 102598
4 марта, чт
чт400:00−3зюз1294100 1.4 1027141
03:00−5зсз119299 2.1 102791
06:00−6юз119478 0.1 102729
09:00−2ю117640 0.1 1027214
12:00+2ссв11650 0.0 1025682
15:00+1ссв228026 0.0 1024521
18:00−1св129499 0.1 1024129
21:00−3юв119692 0.1 102521